www.pogodaiklimat.ru

ПОГОДА в Маунт Холли, NJ

  • Прогноз погоды в Маунт Холли
  • Монитор погоды в Маунт Холли
  • Климат в Маунт Холли

АРХИВ ПОГОДЫ в Маунт Холли

Время (UTC), дата Ветер
(напр.,м/с)
 
Видим.   Явления Облачность Т
(С)
Тd
(С)
f
(%)
Тe
(С)
Тes
(С)
Комфортность

P
(гПа)

Po
(гПа)
Тmin
(С)
Tmax
(С)
R
(мм)
SD
(см)
13:54 24.05 СЗ  7
{11} 
16 км    ясно  +22.8  +9.4  42  +24  +26  комфорт  1013.4  1011.6         
14:54 24.05 СЗ  7
{11} 
16 км    ясно  +23.3  +10.6  45  +25  +29  комфорт  1014.1  1012.3         
15:54 24.05 СЗ  7
{11} 
16 км    2/2 1800 м  +23.9  +11.1  45  +25  +28  комфорт  1014.5  1012.6         
16:54 24.05 СЗ  6
{11} 
16 км    ясно  +25.6  +11.7  42  +27  +32  жарко  1014.2  1012.3  +20.6  +25.6     
17:54 24.05 С  5
{10} 
16 км    2/2 1950 м  +26.1  +11.7  41  +27  +33  жарко  1014.4  1012.6         
18:54 24.05 СЗ  6
{11} 
16 км    2/2 1950 м  +26.1  +11.7  41  +27  +31  жарко  1014.3  1012.6         
19:54 24.05 С  8
{12} 
16 км    ясно  +26.1  +11.7  41  +27  +29  жарко  1014.6  1013.0         
20:54 24.05 СЗ  6
{10} 
16 км    ясно  +25.6  +11.1  40  +27  +29  жарко  1015.5  1013.7         
21:54 24.05 С  16 км    ясно  +24.4  +11.1  43  +26  +27  жарко  1016.3  1014.3         
22:54 24.05 С  16 км    ясно  +21.7  +10.6  49  +23  +24  комфорт  1017.3  1015.3  +21.7  +26.7     
23:54 24.05 С  16 км    ясно  +20.0  +10.6  55  +22  +22  комфорт  1018.0  1016.0         
00:54 25.05 нст  16 км    ясно  +20.0  +10.6  55  +22  +22  комфорт  1019.1  1017.4         
01:54 25.05 СВ  16 км    ясно  +18.3  +10.0  58  +19  +19    1019.2  1017.4         
02:54 25.05 СВ  16 км    ясно  +17.2  +10.0  63  +17  +17    1019.8  1018.0         
03:54 25.05 С  16 км    ясно  +15.6  +9.4  67  +15  +15    1020.5  1018.7         
04:54 25.05 СВ  16 км    ясно  +15.0  +9.4  69  +15  +15    1020.7  1018.7  +15.0  +21.7     
05:54 25.05 СВ  16 км    ясно  +14.4  +9.4  72  +14  +14    1020.4  1018.7         
06:54 25.05 В  16 км    ясно  +13.3  +9.4  77  +12  +12    1020.9  1019.1         
07:54 25.05 ЮВ  16 км    ясно  +12.8  +10.0  83  +12  +12    1021.7  1019.7         
08:54 25.05   16 км    ясно  +11.7  +10.0  89  +11  +11    1022.4  1020.4         
09:54 25.05   16 км    ясно  +13.3  +10.6  84  +13  +13    1023.4  1021.4         
10:54 25.05 нст  16 км    ясно  +15.6  +10.6  72  +15  +16    1023.6  1021.8  +11.7  +15.6     
11:54 25.05 Ю  16 км    8/0 2400 м
[средняя] 
+17.8  +11.1  65  +18  +20    1024.2  1022.4         
12:54 25.05 нст  16 км    8/0 2400 м
[средняя] 
+18.3  +11.7  65  +19  +23    1024.2  1022.4         
13:54 25.05 нст  16 км    10/2 930 м
[средняя] 
+20.0  +12.2  61  +22  +25  комфорт  1024.0  1022.1         
14:54 25.05 нст  16 км    8/5 1110 м
[средняя] 
+21.1  +12.2  57  +23  +27  комфорт  1023.9  1022.1         
15:54 25.05 нст  16 км    10/0 2400 м
[средняя] 
+21.7  +12.2  55  +24  +30  комфорт  1023.1  1021.4         
16:54 25.05 нст  16 км    10/0 2100 м
[средняя] 
+21.7  +11.7  53  +24  +29  комфорт  1022.1  1020.4  +15.6  +22.2     
17:54 25.05 Ю  16 км    10/0 2100 м
[средняя] 
+22.8  +12.2  51  +25  +29  комфорт  1021.2  1019.4         
18:54 25.05 нст  16 км    ясно  +23.3  +13.3  53  +26  +41  жарко  1020.4  1018.4         
19:54 25.05     16 км    5/0 2100 м
[средняя] 
+22.2  +12.2  53  +25  +35  комфорт  1020.0  1018.0         
20:54 25.05 нст  16 км    ясно  +21.7  +12.2  55  +24  +30  комфорт  1019.6  1017.7         
21:54 25.05 ЮВ  16 км    ясно  +20.0  +11.1  57  +21  +24  комфорт  1019.0  1017.0         
22:54 25.05 нст  16 км    ясно  +17.8  +10.6  63  +18  +19    1019.6  1017.7  +17.8  +23.3     
23:54 25.05 нст  16 км    5/0 3300 м
[средняя] 
+17.2  +10.6  65  +17  +17    1018.7  1017.0         
00:54 26.05 нст  16 км    10/0 3300 м
[средняя] 
+16.7  +10.6  67  +16  +16    1018.5  1016.7         
01:54 26.05 нст  16 км    8/0 3300 м
[средняя] 
+16.7  +11.7  72  +17  +17    1018.4  1016.7         
02:54 26.05   16 км    8/0 3000 м
[средняя] 
+16.7  +12.8  78  +17  +17    1017.7  1016.0         
03:54 26.05   16 км    8/0 2100 м
[средняя] 
+16.1  +13.3  83  +16  +16    1017.4  1015.7         
04:54 26.05   16 км    10/0 3300 м
[средняя] 
+16.1  +13.9  87  +16  +16    1015.8  1014.0  +15.6  +18.3     
05:54 26.05   16 км    5/0 3000 м
[средняя] 
+16.1  +15.0  93  +16  +16    1014.9  1013.0         
06:17 26.05   16 км    5/5 270 м  +16.1  +14.4  90  +16  +16      1012.6         
06:28 26.05   16 км    8/8 240 м  +16.1  +14.4  90  +16  +16      1013.0         
06:54 26.05   16 км    10/10 210 м  +16.1  +15.0  93  +16  +16    1015.1  1013.3         
07:54 26.05   16 км    10/10 180 м  +17.2  +16.1  93  +17  +17    1014.9  1013.0         
08:07 26.05   16 км    10/10 150 м  +17.2  +16.1  93  +17  +17      1013.3         
08:19 26.05   16 км    10/10 180 м  +17.2  +16.1  93  +17  +17      1013.3         
08:54 26.05 З  16 км    10/10 210 м  +17.8  +16.7  93  +18  +18    1015.5  1013.7         

 

Местоположение метеостанции South Jersey Regional Airport: широта 39.9408 долгота -74.8407 высота над уровнем моря 15 м.

В архиве по умолчанию представлена погода в Маунт Холли за последние 1-2 суток. Обновление информации о фактической погоде в базе происходит ежечасно! Архивные данные за месяц целиком и за предыдущие месяцы Вы можете получить, выбрав интересующий диапазон дат из раскрывающегося списка и нажав кнопку "Ввод!".

Внимание! Архив погоды МЕТАР в базе сайта хранится не более 60 дней. Нет смысла пытаться выбрать более раннюю дату.

Внимание! Время в таблицах - всемирное. Для получения местного времени необходимо прибавить поправку, которая в Маунт Холли равна -5 ч.

Ветер - указаны скорость ветра в м/с и направление, откуда дует ветер: С - северный, СВ - северо-восточный, В - восточный, ЮВ - юго-восточный, Ю - южный, ЮЗ - юго-западный, З - западный, СЗ - северо-западный.
Видимость - горизонтальная дальность видимости в метрах или километрах. При видимости от 1 до 10 км при отсутствии осадков обычно наблюдается дымка, при ухудшении видимости до 1 км и менее - туман. В сухую погоду видимость может ухудшаться дымом, пылью или мглою.
Атмосферные явления - указаны явления, наблюдавшиеся в указанный момент времени.
Облачность - указаны через наклонную черту верхняя и нижняя облачность в баллах и высота нижней границы облаков в метрах. Внимание: облачность, как и прочие метеорологические величины в США измеряются автоматическими метеостанциями. Указанные значения в баллах носят условный характер и показывают процент времени, в течение которого, в среднем, лазерный луч высотомера отражался от облаков обратно.
T - Температура воздуха - температура, измеренная на высоте 2 м над землей.
Td - Температура точки росы - температура, при понижении до которой содержащийся в воздухе водяной пар достигнет насыщения.
f - Относительная влажность воздуха - влажноcть воздуха, измеренная на высоте 2 м над землей.
Te - Эффективная температура - температура, которую ощущает одетый по сезону человек в тени. Характеристика душности погоды. При расчете учитывается влияние влажности воздуха и скорости ветра на теплоощущения человека.
Tes - Эффективная температура на солнце - температура, которую ощущает человек, с поправкой на солнечный нагрев. Характеристика знойности погоды. Зависит от высоты солнца над горизонтом, облачности и скорости ветра. Ночью, в пасмурную погоду, а также при ветре 12 м/с и более поправка равна нулю.
P - Атмосферное давление - приведенное к уровню моря атмосферное давление.
Po - Атмосферное давление - измеренное на уровне метеостанции атмосферное давление.
Tmin - Минимальная температура - минимум температуры воздуха на высоте 2 м над землей.
Tmax - Максимальная температура - максимум температуры воздуха на высоте 2 м над землей.
R - Количество осадков - Количество выпавших осадков за 3 или 6 часов, мм.
SD - Снежный покров - Высота снежного покрова, см.